Flag for Germany Weather past 2 weeks in Kempten, Bavaria, Germany

Now
43 °F

Passing clouds.


Feels Like: 40 °F
Forecast: 35 / 39 °F
Wind: 5 mph from Southwest

Location: Kempten

Current Time: Apr 1, 2015 at 12:41:19 AM

Latest Report: Mar 31, 2015 at 10:00 PM


Visibility: 28 mi

Pressure: 29.96 "Hg

Humidity: 70%

Dew point: 33 °F

Location of KemptenLocation

Historic Weather in Kempten — Graph

°F

Kempten temperature yesterday

Maximum temperature yesterday: 56 °F (at 1:00 PM)
Minimum temperature yesterday: 40 °F (at 3:00 AM)
Average temperature yesterday: 48 °F

Past Weeks' High & Low Weather Summary

 TemperatureHumidityPressure
High63 °F (Mar 17, 2:00 PM)98% (Mar 22, 2:00 AM)30.31 "Hg (Mar 22, 2:00 AM)
Low28 °F (Mar 20, 7:00 AM)27% (Mar 17, 2:00 PM)29.47 "Hg (Mar 25, 1:00 PM)
Average44 °F73%30.00 "Hg
* Reported Mar 16 9:00 PM — Mar 31 10:00 PM, Kempten, Weather by CustomWeather, © 2015

Note: Actual official high and low records may vary slightly from our data, if they occured in-between our weather recording intervals... More about our weather records

Advertising

Kempten weather history for previous 24 hours

 ConditionsComfort  
Time TempWeatherWind HumidityBarometerVisibility
10:00 PM
Tue, Mar 31
43 °FPassing clouds.5 mph70%29.96 "Hg28 mi
9:00 PM44 °FPassing clouds.6 mph72%29.93 "Hg34 mi
8:00 PM45 °FPassing clouds.8 mph71%29.90 "Hg31 mi
7:00 PM45 °FOvercast.8 mph81%29.85 "Hg40 mi
6:00 PM46 °FLight rain. Overcast.10 mph85%29.79 "Hg3 mi
5:00 PM49 °FOvercast.14 mph67%29.76 "Hg34 mi
4:00 PM52 °FLight freezing rain. Overcast.16 mph61%29.71 "Hg13 mi
3:00 PM53 °FOvercast.14 mph63%29.70 "Hg28 mi
2:00 PM53 °FPartly sunny.13 mph63%29.68 "Hg22 mi
1:00 PM56 °FPartly sunny.13 mph54%29.64 "Hg31 mi
12:00 PM56 °FLight rain. Partly sunny.14 mph55%29.64 "Hg12 mi
10:00 AM55 °FOvercast.13 mph60%29.63 "Hg43 mi
9:00 AM54 °FOvercast.12 mph65%29.65 "Hg43 mi
8:00 AM52 °FOvercast.8 mph69%29.68 "Hg43 mi
7:00 AM51 °FOvercast.9 mph74%29.68 "Hg43 mi
6:00 AM49 °FOvercast.8 mph75%29.71 "Hg43 mi
4:00 AM43 °FDrizzle. Overcast.7 mph84%29.85 "Hg22 mi
3:00 AM40 °FLight freezing rain. Overcast.6 mph87%29.92 "Hg5 mi
2:00 AM41 °FLight rain. Overcast.5 mph82%29.93 "Hg15 mi
1:00 AM44 °FLight rain. Overcast.5 mph74%29.96 "Hg22 mi
12:00 AM44 °FOvercast.5 mph68%29.99 "Hg31 mi
Weather by CustomWeather, © 2015

See weather overviewHow to use our weather pages